This is the latest recevied weather packets stored in our database for station/object WX4LTG. If no packets are shown the sender has not sent any weather packets the latest 10 day(s).
| Time | Temp. | Humidity | Pressure | Rain* | Wind** | Luminosity | Snow |
|---|---|---|---|---|---|---|---|
| 1777684444 | 30.56° C | 19% | 1008.5 hPa | 0 mm | - | 68 W/m² | - |
| 1777684141 | 31.11° C | 19% | 1008.4 hPa | 0 mm | - | 78 W/m² | - |
| 1777683838 | 30.56° C | 19% | 1008.5 hPa | 0 mm | - | 89 W/m² | - |
| 1777683535 | 30.56° C | 18% | 1008.3 hPa | 0 mm | - | 100 W/m² | - |
| 1777683233 | 30.56° C | 19% | 1008.3 hPa | 0 mm | - | 112 W/m² | - |
| 1777682930 | 30.56° C | 19% | 1008.5 hPa | 0 mm | - | 125 W/m² | - |
| 1777682626 | 30.56° C | 19% | 1008.1 hPa | 0 mm | - | 137 W/m² | - |
| 1777682323 | 31.11° C | 19% | 1008.3 hPa | 0 mm | - | 151 W/m² | - |
| 1777682020 | 30.56° C | 18% | 1008 hPa | 0 mm | - | 166 W/m² | - |
| 1777681717 | 30.56° C | 19% | 1008.1 hPa | 0 mm | - | 182 W/m² | - |
| 1777681414 | 31.11° C | 18% | 1008.3 hPa | 0 mm | - | 196 W/m² | - |
| 1777681111 | 31.11° C | 18% | 1008.5 hPa | 0 mm | - | 209 W/m² | - |
| 1777680809 | 31.11° C | 19% | 1008.4 hPa | 0 mm | - | 224 W/m² | - |
| 1777680506 | 31.11° C | 19% | 1008.4 hPa | 0 mm | - | 239 W/m² | - |
| 1777680204 | 31.11° C | 19% | 1008.4 hPa | 0 mm | - | 253 W/m² | - |
| 1777679900 | 31.11° C | 20% | 1008.4 hPa | 0 mm | - | 267 W/m² | - |
| 1777679596 | 31.11° C | 20% | 1008.4 hPa | 0 mm | - | 282 W/m² | - |
| 1777679291 | 31.11° C | 20% | 1008.4 hPa | 0 mm | - | 298 W/m² | - |
| 1777678989 | 31.11° C | 20% | 1008 hPa | 0 mm | - | 311 W/m² | - |
| 1777678687 | 31.11° C | 21% | 1008.4 hPa | 0 mm | - | 326 W/m² | - |
| 1777678384 | 31.11° C | 21% | 1008.4 hPa | 0 mm | - | 341 W/m² | - |
| 1777678080 | 31.11° C | 20% | 1008.6 hPa | 0 mm | - | 355 W/m² | - |
| 1777677777 | 30.56° C | 21% | 1008.7 hPa | 0 mm | - | 370 W/m² | - |
| 1777677475 | 31.11° C | 21% | 1008.4 hPa | 0 mm | - | 386 W/m² | - |
| 1777677173 | 30.56° C | 21% | 1008.7 hPa | 0 mm | - | 400 W/m² | - |
* Rain latest hour (hover to see other rain measurements)
** Current wind speed in m/s (hover to see current wind gust speed)